[[{"header":{"parameterUnit":"m.s-1","parameterCategory":1,"la1":30.2991,"la2":30.254,"lo1":-89.0895,"lo2":-89.0444,"dy":0.0017,"dx":0.0017,"nx":28,"ny":28,"refTime":"2025-11-13T03:00:00:Z","depth":0,"parameterNumber":2,"parameterNumberName":"U-component_of_WINDS"},"data":[0,0,0,0,0,0,0,0,0,0,0,0,0,0,0,0,0,0,0,0,0,0,0,0,0,0,0,0,0,0,0,0,0,0,0,0,0,0,0,0,0,0,0,0,0,0,0,0,0,0,0,0,0,0,0,0,0,0,0.5155,0.5156,0,0.5278,0.5279,0.5281,0.5302,0.53,0.5299,0.5298,0.5428,0.5432,0.5437,0,0,0,0,0,0,0,0,0,0,0,0,0,0.494,0.4944,0.5155,0.5157,0.5158,0.5278,0.528,0.5281,0.5302,0.53,0.5299,0.5298,0.5427,0.5432,0.5437,0,0,0,0,0,0,0,0,0,0,0,0,0,0.5045,0.4945,0.5155,0.5183,0.5186,0.5278,0.528,0.5282,0.5302,0.53,0.5299,0.5297,0.5425,0.5431,0.5438,0.5511,0,0,0.5458,0.5461,0,0,0,0,0,0,0,0,0.5039,0.5053,0.5177,0.5181,0.5185,0.5273,0.5251,0.5359,0.5302,0.5258,0.5298,0.5297,0.5378,0.5388,0.5415,0.5517,0.5523,0.5459,0.5463,0.5466,0.5468,0,0,0,0,0,0,0,0.5032,0.5048,0.5204,0.5179,0.5184,0.519,0.5203,0.5272,0.5326,0.5262,0.5264,0.5278,0.538,0.5409,0.5418,0.5525,0.5459,0.5465,0.5469,0.5471,0.5691,0.5693,0,0,0,0,0,0,0.5019,0.5042,0.52,0.5207,0.5107,0.5195,0.521,0.5246,0.5325,0.5335,0.5279,0.5278,0.5398,0.541,0.5423,0.5512,0.5466,0.5472,0.5476,0.5689,0.5691,0.5693,0,0,0,0,0,0,0.5014,0.5033,0.5195,0.5125,0.5146,0.52,0.5241,0.525,0.5278,0.5338,0.5348,0.5298,0.5397,0.5414,0.5488,0.5517,0.5475,0.5481,0.5687,0.569,0.5692,0.5693,0,0,0,0,0,0,0.5008,0.5031,0.5059,0.5125,0.515,0.5258,0.5243,0.5253,0.5289,0.5289,0.5359,0.5368,0.5397,0.5478,0.5495,0.5526,0.5486,0.5685,0.5688,0.5691,0.569,0.5695,0.5699,0,0,0,0,0,0.5,0.5056,0.5061,0.508,0.5186,0.5259,0.5273,0.5304,0.5292,0.532,0.5358,0.5366,0.5511,0.5486,0.5505,0.5538,0.5683,0.5687,0.5691,0.5688,0.5694,0.5699,0,0,0,0,0,0,0.4993,0.5065,0.5071,0.5149,0.5198,0.5263,0.53,0.531,0.5364,0.5362,0.5399,0.5414,0.5487,0.552,0.549,0.5612,0.5596,0.5604,0.5588,0.5594,0.5598,0.5589,0.5492,0,0,0,0,0,0.5,0.5053,0.5114,0.5177,0.5201,0.5246,0.5279,0.5298,0.5351,0.5372,0.5415,0.5467,0.5523,0.556,0.5616,0.5695,0.571,0.5727,0.5731,0.5735,0.5742,0.5784,0.5792,0.5707,0.5707,0.5707,0,0,0.5017,0.5062,0.5094,0.5176,0.5216,0.5271,0.5263,0.5322,0.5362,0.5381,0.5454,0.5487,0.5547,0.5623,0.5659,0.5653,0.5768,0.574,0.5742,0.5747,0.5789,0.5797,0.5804,0.571,0.5709,0.5709,0,0,0.5074,0.5114,0.517,0.5209,0.5269,0.5298,0.5312,0.5375,0.5397,0.547,0.5485,0.5534,0.5632,0.5673,0.5707,0.5777,0.5786,0.5794,0.5817,0.5858,0.5865,0.5871,0.5895,0.5904,0.58,0.58,0.58,0,0.5087,0.5168,0.5198,0.5255,0.529,0.5308,0.5365,0.5402,0.5478,0.5502,0.5494,0.5615,0.5657,0.5742,0.5759,0.5786,0.5802,0.5787,0.5861,0.5868,0.5874,0.5898,0.5907,0.5801,0.5801,0.5801,0.5801,0,0.518,0.5237,0.5275,0.5345,0.5385,0.5442,0.5481,0.5518,0.5533,0.5563,0.5637,0.5686,0.5752,0.5774,0.579,0.5861,0.5855,0.5854,0.5839,0.5882,0.5905,0.5914,0.5802,0.5801,0.5801,0.5801,0,0,0.5238,0.5322,0.5335,0.5367,0.5433,0.5477,0.5534,0.5597,0.5627,0.5678,0.5727,0.5808,0.5806,0.5844,0.5865,0.5901,0.5952,0.5895,0.5897,0.5904,0.6032,0.6033,0.6043,0.5958,0.596,0.5961,0.6027,0,0.5302,0.5403,0.5431,0.5517,0.5569,0.5585,0.5635,0.5681,0.571,0.5759,0.5792,0.5848,0.5842,0.5865,0.5901,0.5938,0.5978,0.5934,0.6004,0.6006,0.5988,0.6055,0.6056,0.6116,0.6036,0.6038,0.6039,0,0.5391,0.5441,0.5532,0.5589,0.5612,0.5656,0.5715,0.5761,0.5813,0.5832,0.5873,0.589,0.595,0.5932,0.6015,0.5984,0.6014,0.6036,0.6039,0.6047,0.6025,0.6064,0.6136,0.6144,0.6053,0.6052,0.6051,0,0.5422,0.5513,0.5579,0.5605,0.5674,0.5704,0.5735,0.5785,0.582,0.5872,0.5895,0.5953,0.5985,0.6029,0.6061,0.6045,0.6142,0.6126,0.6159,0.6158,0.6179,0.6177,0.6256,0.6199,0.6199,0.6198,0.6198,0,0.5491,0.5546,0.5593,0.5634,0.5695,0.5726,0.5786,0.5818,0.5862,0.5909,0.5927,0.5971,0.6011,0.606,0.6085,0.615,0.6164,0.6181,0.6187,0.6179,0.6177,0.62,0.6197,0.6201,0.62,0.62,0.6199,0,0.5537,0.5571,0.5643,0.5702,0.5718,0.576,0.5811,0.5851,0.5879,0.5938,0.5954,0.6,0.6059,0.6095,0.617,0.6187,0.6257,0.6262,0.6239,0.6242,0.6273,0.6269,0.6369,0.6383,0.6317,0.6317,0.6318,0,0.5578,0.562,0.5682,0.5714,0.5744,0.5796,0.5831,0.5863,0.5899,0.596,0.5993,0.6052,0.6101,0.6193,0.6234,0.6291,0.6297,0.6328,0.6306,0.6296,0.6297,0.6293,0.6297,0.6332,0.6332,0.6333,0.6333,0,0.5648,0.5662,0.5711,0.5766,0.5807,0.5852,0.5898,0.5923,0.5963,0.6002,0.6061,0.6099,0.6174,0.6232,0.6292,0.6324,0.6335,0.6339,0.635,0.6342,0.6327,0.6335,0.6249,0.6337,0.6337,0.6336,0.6336,0.6336,0.5692,0.573,0.5779,0.5833,0.587,0.5911,0.595,0.5983,0.6033,0.6095,0.6111,0.6173,0.6223,0.6304,0.6337,0.6386,0.6381,0.6397,0.6401,0.6404,0.6404,0.6319,0.6397,0.6397,0.6397,0.6397,0.6397,0,0.5762,0.5794,0.5843,0.5904,0.5947,0.5952,0.6002,0.6037,0.609,0.6135,0.6182,0.6249,0.6305,0.6349,0.6407,0.6438,0.6444,0.6452,0.645,0.6457,0.6405,0.639,0.6445,0.6445,0.6445,0.6445,0.6445,0.6445,0.5803,0.5866,0.5886,0.5967,0.5999,0.6058,0.6086,0.6124,0.616,0.6233,0.6279,0.6307,0.6352,0.6412,0.6464,0.6476,0.6496,0.6502,0.6515,0.6466,0.6461,0.6455,0.6441,0.6506,0.6507,0.6562,0.6563,0.6563]},{"header":{"parameterUnit":"m.s-1","parameterCategory":1,"la1":30.2991,"la2":30.254,"lo1":-89.0895,"lo2":-89.0444,"dy":0.0017,"dx":0.0017,"nx":28,"ny":28,"refTime":"2025-11-13T03:00:00:Z","depth":0,"parameterNumber":3,"parameterNumberName":"V-component_of_WINDS"},"data":[0,0,0,0,0,0,0,0,0,0,0,0,0,0,0,0,0,0,0,0,0,0,0,0,0,0,0,0,0,0,0,0,0,0,0,0,0,0,0,0,0,0,0,0,0,0,0,0,0,0,0,0,0,0,0,0,0,0,0.7925,0.7925,0,0.7865,0.7864,0.7863,0.7834,0.7834,0.7834,0.7834,0.7768,0.7766,0.7765,0,0,0,0,0,0,0,0,0,0,0,0,0,0.8012,0.8011,0.7926,0.7925,0.7924,0.7865,0.7864,0.7863,0.7834,0.7834,0.7834,0.7834,0.7769,0.7767,0.7765,0,0,0,0,0,0,0,0,0,0,0,0,0,0.7965,0.801,0.7926,0.7903,0.79,0.7865,0.7864,0.7863,0.7834,0.7834,0.7834,0.7834,0.7769,0.7767,0.7764,0.7747,0,0,0.7756,0.7755,0,0,0,0,0,0,0,0,0.7968,0.7962,0.7907,0.7904,0.7901,0.7857,0.787,0.7824,0.7834,0.7859,0.7834,0.7834,0.7797,0.7792,0.7781,0.7743,0.7741,0.7756,0.7754,0.7753,0.7752,0,0,0,0,0,0,0,0.7971,0.7964,0.7901,0.7906,0.7902,0.7894,0.7887,0.7861,0.7828,0.7857,0.7855,0.7848,0.7796,0.7784,0.7779,0.774,0.7756,0.7753,0.7752,0.7751,0.7682,0.7682,0,0,0,0,0,0,0.7979,0.7967,0.7903,0.7899,0.7935,0.7892,0.7885,0.7871,0.7829,0.7822,0.7848,0.7847,0.7788,0.7782,0.7777,0.7752,0.7753,0.775,0.7749,0.7682,0.7682,0.7682,0,0,0,0,0,0,0.7981,0.7973,0.7906,0.7933,0.7924,0.7891,0.7875,0.787,0.7857,0.7822,0.7816,0.7842,0.7788,0.778,0.7754,0.7749,0.7749,0.7747,0.7682,0.7682,0.7682,0.7702,0,0,0,0,0,0,0.7983,0.7974,0.7969,0.7933,0.7922,0.7886,0.7875,0.7869,0.7853,0.7851,0.7814,0.7808,0.7787,0.7758,0.7751,0.7745,0.7745,0.7683,0.7682,0.7682,0.7702,0.7703,0.7704,0,0,0,0,0,0.7987,0.7976,0.7968,0.7961,0.7915,0.7885,0.7879,0.7856,0.7853,0.7846,0.7823,0.781,0.7751,0.7756,0.7748,0.7741,0.7683,0.7682,0.7682,0.7702,0.7703,0.7704,0,0,0,0,0,0,0.8012,0.7971,0.7962,0.794,0.7917,0.7881,0.7871,0.7858,0.7834,0.7833,0.7804,0.7796,0.7772,0.7754,0.776,0.772,0.7715,0.7713,0.7733,0.7734,0.7734,0.7739,0.7743,0,0,0,0,0,0.8015,0.7996,0.7961,0.7945,0.7934,0.7905,0.7891,0.7876,0.7849,0.7839,0.7814,0.7788,0.7763,0.7747,0.7723,0.7699,0.769,0.769,0.7691,0.7692,0.769,0.7674,0.7673,0.768,0.768,0.768,0,0,0.8021,0.7996,0.7986,0.795,0.7929,0.7909,0.7896,0.7876,0.7859,0.7835,0.7809,0.7789,0.7758,0.7732,0.772,0.7716,0.7686,0.7691,0.7692,0.769,0.7673,0.7673,0.7672,0.768,0.768,0.768,0,0,0.8021,0.8002,0.7985,0.7965,0.7935,0.7915,0.7911,0.7877,0.7863,0.7836,0.7817,0.7796,0.7755,0.7733,0.7717,0.7707,0.7692,0.7699,0.7703,0.7688,0.7687,0.7686,0.7681,0.768,0.7698,0.7698,0.7698,0,0.8032,0.8002,0.7978,0.7958,0.7942,0.7919,0.7902,0.7883,0.7845,0.7834,0.7831,0.7777,0.7755,0.7723,0.772,0.7708,0.7701,0.7703,0.7689,0.7688,0.7687,0.7682,0.768,0.7699,0.7699,0.7699,0.7698,0,0.8016,0.7995,0.7985,0.795,0.7932,0.7914,0.7886,0.7871,0.7856,0.7836,0.7807,0.7779,0.7748,0.7739,0.7725,0.7704,0.7703,0.7695,0.7689,0.7688,0.7682,0.768,0.77,0.77,0.7699,0.7699,0,0,0.8031,0.7982,0.7979,0.7962,0.7926,0.7909,0.7888,0.7858,0.7844,0.7819,0.7799,0.7764,0.7756,0.7737,0.772,0.7706,0.7698,0.7699,0.7698,0.7699,0.7671,0.7677,0.7675,0.7688,0.7688,0.7687,0.7673,0,0.8025,0.7988,0.7965,0.7937,0.7916,0.7893,0.7875,0.7849,0.783,0.7808,0.7785,0.776,0.7753,0.7741,0.7727,0.7702,0.7691,0.7703,0.7668,0.7667,0.7676,0.7672,0.7678,0.7666,0.7671,0.7671,0.767,0,0.8014,0.7989,0.7958,0.7923,0.7913,0.7897,0.7867,0.7847,0.7817,0.7803,0.7782,0.7764,0.7739,0.7735,0.7699,0.7707,0.7691,0.7677,0.7676,0.7671,0.7668,0.7666,0.7662,0.766,0.7667,0.7667,0.7667,0,0.8026,0.7985,0.7961,0.7947,0.7906,0.7895,0.7877,0.7847,0.783,0.7803,0.7791,0.7761,0.7744,0.7721,0.7694,0.7695,0.766,0.7655,0.7646,0.7647,0.7639,0.764,0.7632,0.7631,0.7631,0.7631,0.7631,0,0.8021,0.8003,0.7966,0.7951,0.7929,0.7902,0.7881,0.7861,0.7834,0.7813,0.7792,0.7773,0.774,0.7716,0.7695,0.7666,0.7659,0.7646,0.7641,0.7648,0.7649,0.7636,0.7636,0.7631,0.7631,0.7631,0.7631,0,0.8031,0.8006,0.7978,0.7941,0.7931,0.7916,0.7883,0.7867,0.7846,0.782,0.7812,0.7778,0.7748,0.772,0.768,0.7666,0.7637,0.7631,0.7648,0.7645,0.7637,0.7638,0.7619,0.7615,0.7619,0.7619,0.7619,0,0.803,0.8015,0.7976,0.7961,0.7944,0.792,0.7902,0.7875,0.7857,0.7821,0.7808,0.7777,0.7751,0.7704,0.7675,0.7644,0.7636,0.7631,0.7631,0.7637,0.7634,0.7634,0.7632,0.7632,0.7632,0.7632,0.7632,0,0.8029,0.8017,0.7993,0.7964,0.7943,0.7919,0.7894,0.7882,0.7849,0.783,0.78,0.7779,0.7739,0.7707,0.7672,0.7652,0.7635,0.7632,0.7628,0.7635,0.7645,0.7638,0.7648,0.7633,0.7633,0.7633,0.7633,0.7633,0.8032,0.8017,0.7987,0.7961,0.7939,0.7915,0.7897,0.7874,0.7849,0.7814,0.7799,0.7768,0.7736,0.7688,0.7667,0.7641,0.7637,0.7632,0.763,0.7629,0.763,0.765,0.7635,0.7635,0.7635,0.7635,0.7634,0,0.8029,0.8009,0.7984,0.795,0.7928,0.7916,0.7886,0.7869,0.7842,0.7814,0.7789,0.7753,0.7722,0.769,0.7657,0.7642,0.7633,0.7634,0.7634,0.7629,0.7636,0.7642,0.7641,0.7641,0.7641,0.7641,0.7641,0.7641,0.8025,0.7999,0.7983,0.7945,0.7924,0.7894,0.7878,0.7855,0.7833,0.7794,0.7769,0.7748,0.7718,0.7682,0.7652,0.7643,0.7631,0.7634,0.7623,0.7629,0.7629,0.7629,0.7634,0.7632,0.7632,0.7618,0.7618,0.7618]}]]